| time (UTC) | temp F | wind direction | speed MPH | gust MPH | rain 1hr in | rain 24hr in | rain mn in | humidity % | barometer mb |
| 20260905113050 | 49 | 0 | 0.0 | 0.0 | 0.00 | 0.00 | 0.00 | 97 | 1016.6 |
| 20260905111546 | 49 | 0 | 0.0 | 0.0 | 0.00 | 0.00 | 0.00 | 97 | 1016.5 |
| 20260905110049 | 49 | 0 | 0.0 | 0.0 | 0.00 | 0.00 | 0.00 | 96 | 1016.5 |
| 20260905104550 | 48 | 0 | 0.0 | 1.0 | 0.00 | 0.00 | 0.00 | 96 | 1016.4 |
| 20260905103054 | 49 | 0 | 0.0 | 1.0 | 0.00 | 0.00 | 0.00 | 96 | 1016.4 |
| 20260905101557 | 49 | 0 | 0.0 | 2.0 | 0.00 | 0.00 | 0.00 | 96 | 1016.5 |
| 20260905100117 | 49 | 0 | 0.0 | 0.0 | 0.00 | 0.00 | 0.00 | 96 | 1016.5 |
| 20260905094551 | 49 | 0 | 0.0 | 1.0 | 0.00 | 0.00 | 0.00 | 95 | 1016.4 |
| 20260905093047 | 50 | 0 | 0.0 | 1.0 | 0.00 | 0.00 | 0.00 | 96 | 1016.5 |
| 20260905091554 | 50 | 0 | 0.0 | 2.0 | 0.00 | 0.00 | 0.00 | 95 | 1016.4 |
| 20260905090048 | 49 | 0 | 0.0 | 1.0 | 0.00 | 0.00 | 0.00 | 95 | 1016.3 |
| 20260905084552 | 50 | 0 | 0.0 | 0.0 | 0.00 | 0.00 | 0.00 | 95 | 1016.3 |
| 20260905083103 | 50 | 0 | 0.0 | 2.0 | 0.00 | 0.00 | 0.00 | 95 | 1016.3 |
| 20260905081550 | 51 | 0 | 0.0 | 1.0 | 0.00 | 0.00 | 0.00 | 95 | 1016.2 |
| 20260905080051 | 51 | 253 | 0.0 | 1.0 | 0.00 | 0.00 | 0.00 | 95 | 1016.1 |
| 20260905074549 | 51 | 0 | 0.0 | 1.0 | 0.00 | 0.01 | 0.00 | 94 | 1016.0 |
| 20260905073043 | 52 | 0 | 0.0 | 2.0 | 0.00 | 0.01 | 0.00 | 94 | 1015.9 |
| 20260905071551 | 52 | 214 | 0.0 | 2.0 | 0.00 | 0.01 | 0.00 | 94 | 1015.9 |
| 20260905070051 | 52 | 0 | 0.0 | 1.0 | 0.00 | 0.01 | 0.00 | 94 | 1015.7 |
| 20260905064607 | 52 | 0 | 0.0 | 1.0 | 0.00 | 0.01 | 0.01 | 93 | 1015.7 |
| 20260905063042 | 53 | 0 | 0.0 | 1.0 | 0.00 | 0.01 | 0.01 | 93 | 1015.6 |
| 20260905061549 | 53 | 0 | 0.0 | 1.0 | 0.00 | 0.01 | 0.01 | 93 | 1015.4 |
| 20260905060050 | 54 | 0 | 0.0 | 2.0 | 0.00 | 0.01 | 0.01 | 93 | 1015.4 |
| 20260905054629 | 54 | 0 | 0.0 | 1.0 | 0.00 | 0.01 | 0.01 | 92 | 1015.4 |
| 20260905053044 | 54 | 0 | 0.0 | 2.0 | 0.00 | 0.01 | 0.01 | 92 | 1015.3 |
| 20260905051550 | 55 | 0 | 0.0 | 1.0 | 0.00 | 0.01 | 0.01 | 92 | 1015.4 |
| 20260905050049 | 55 | 0 | 0.0 | 1.0 | 0.00 | 0.01 | 0.01 | 91 | 1015.6 |
| 20260905044553 | 55 | 0 | 0.0 | 1.0 | 0.00 | 0.01 | 0.01 | 92 | 1015.5 |
| 20260905043056 | 56 | 0 | 0.0 | 1.0 | 0.00 | 0.01 | 0.01 | 91 | 1015.5 |
| 20260905041548 | 56 | 0 | 0.0 | 3.0 | 0.00 | 0.01 | 0.01 | 90 | 1015.3 |
| 20260905040059 | 57 | 65 | 0.0 | 3.0 | 0.00 | 0.01 | 0.01 | 90 | 1015.3 |
| 20260905034559 | 58 | 36 | 1.0 | 3.0 | 0.00 | 0.01 | 0.01 | 90 | 1015.0 |
| 20260905033042 | 58 | 0 | 1.0 | 3.0 | 0.00 | 0.01 | 0.01 | 89 | 1014.6 |
| 20260905031550 | 59 | 360 | 1.0 | 3.0 | 0.00 | 0.01 | 0.01 | 87 | 1014.6 |
| 20260905030049 | 60 | 0 | 0.0 | 3.0 | 0.00 | 0.01 | 0.01 | 87 | 1014.6 |
| 20260905024554 | 60 | 171 | 0.0 | 1.0 | 0.00 | 0.07 | 0.01 | 86 | 1014.5 |
| 20260905023049 | 61 | 0 | 0.0 | 4.0 | 0.00 | 0.07 | 0.01 | 85 | 1014.5 |
| 20260905021549 | 62 | 169 | 1.0 | 5.0 | 0.00 | 0.07 | 0.01 | 83 | 1014.3 |
| 20260905020054 | 63 | 0 | 0.0 | 4.0 | 0.00 | 0.07 | 0.01 | 81 | 1014.2 |
| 20260905014554 | 64 | 173 | 1.0 | 2.0 | 0.00 | 0.10 | 0.01 | 79 | 1014.2 |
| 20260905013049 | 64 | 99 | 0.0 | 5.0 | 0.00 | 0.10 | 0.01 | 77 | 1014.1 |
| 20260905011552 | 66 | 0 | 0.0 | 8.0 | 0.00 | 0.10 | 0.01 | 70 | 1014.0 |
| 20260905010053 | 67 | 269 | 2.0 | 7.0 | 0.00 | 0.10 | 0.01 | 68 | 1013.9 |
| 20260905004553 | 66 | 290 | 2.0 | 9.0 | 0.00 | 0.18 | 0.01 | 70 | 1013.6 |
| 20260905003046 | 66 | 291 | 2.0 | 11.0 | 0.00 | 0.18 | 0.01 | 73 | 1013.5 |
| 20260905001547 | 65 | 360 | 5.0 | 11.0 | 0.00 | 0.18 | 0.01 | 74 | 1013.4 |
| 20260905000054 | 65 | 269 | 3.0 | 9.0 | 0.00 | 0.18 | 0.01 | 75 | 1013.2 |
| 20260904234550 | 65 | 337 | 2.0 | 9.0 | 0.00 | 0.26 | 0.01 | 73 | 1013.1 |
| 20260904233047 | 65 | 290 | 1.0 | 8.0 | 0.00 | 0.26 | 0.01 | 73 | 1013.2 |
| 20260904231601 | 65 | 271 | 3.0 | 11.0 | 0.00 | 0.26 | 0.01 | 72 | 1013.0 |
| 20260904230043 | 68 | 281 | 6.0 | 11.0 | 0.00 | 0.26 | 0.01 | 70 | 1012.9 |
| 20260904224556 | 66 | 25 | 2.0 | 5.0 | 0.00 | 0.35 | 0.01 | 69 | 1013.0 |
| 20260904223048 | 66 | 123 | 3.0 | 9.0 | 0.00 | 0.35 | 0.01 | 73 | 1012.9 |
| 20260904221555 | 66 | 98 | 2.0 | 9.0 | 0.00 | 0.35 | 0.01 | 69 | 1012.9 |
| 20260904220051 | 66 | 128 | 1.0 | 4.0 | 0.00 | 0.35 | 0.01 | 68 | 1012.8 |
| 20260904214548 | 67 | 80 | 1.0 | 6.0 | 0.00 | 0.35 | 0.01 | 68 | 1012.6 |
| 20260904213048 | 67 | 70 | 3.0 | 7.0 | 0.00 | 0.35 | 0.01 | 67 | 1012.6 |
| 20260904211545 | 68 | 153 | 2.0 | 5.0 | 0.00 | 0.35 | 0.01 | 66 | 1012.5 |
| 20260904210054 | 67 | 150 | 1.0 | 4.0 | 0.00 | 0.35 | 0.01 | 65 | 1012.4 |
| 20260904204548 | 66 | 171 | 1.0 | 5.0 | 0.00 | 0.35 | 0.01 | 67 | 1012.3 |
| 20260904203057 | 66 | 106 | 1.0 | 3.0 | 0.00 | 0.35 | 0.01 | 70 | 1012.3 |
| 20260904201555 | 66 | 88 | 1.0 | 4.0 | 0.00 | 0.35 | 0.01 | 71 | 1012.4 |
| 20260904200106 | 66 | 82 | 2.0 | 6.0 | 0.00 | 0.35 | 0.01 | 70 | 1012.6 |
| 20260904194551 | 66 | 159 | 2.0 | 6.0 | 0.00 | 0.35 | 0.01 | 69 | 1012.5 |
| 20260904193051 | 65 | 62 | 1.0 | 9.0 | 0.00 | 0.35 | 0.01 | 71 | 1012.3 |
| 20260904191547 | 66 | 72 | 2.0 | 6.0 | 0.00 | 0.35 | 0.01 | 70 | 1012.5 |
| 20260904190051 | 67 | 67 | 2.0 | 9.0 | 0.00 | 0.35 | 0.01 | 68 | 1012.4 |
| 20260904184542 | 67 | 116 | 3.0 | 10.0 | 0.00 | 0.38 | 0.01 | 70 | 1012.4 |
| 20260904183050 | 65 | 92 | 1.0 | 8.0 | 0.00 | 0.38 | 0.01 | 75 | 1012.3 |
| 20260904181549 | 64 | 69 | 1.0 | 7.0 | 0.00 | 0.38 | 0.01 | 76 | 1012.2 |
| 20260904180056 | 63 | 132 | 1.0 | 8.0 | 0.00 | 0.38 | 0.01 | 77 | 1012.1 |
| 20260904174550 | 63 | 154 | 1.0 | 6.0 | 0.00 | 0.58 | 0.01 | 77 | 1012.0 |
| 20260904173100 | 62 | 85 | 2.0 | 8.0 | 0.00 | 0.58 | 0.01 | 78 | 1012.0 |
| 20260904171551 | 63 | 50 | 2.0 | 8.0 | 0.00 | 0.58 | 0.01 | 79 | 1011.9 |
| 20260904170054 | 60 | 82 | 3.0 | 8.0 | 0.00 | 0.58 | 0.01 | 82 | 1011.7 |
| 20260904164553 | 60 | 81 | 2.0 | 10.0 | 0.00 | 0.80 | 0.01 | 82 | 1011.9 |
| 20260904163046 | 59 | 80 | 2.0 | 7.0 | 0.00 | 0.80 | 0.01 | 83 | 1011.7 |
| 20260904161541 | 58 | 68 | 2.0 | 9.0 | 0.00 | 0.80 | 0.01 | 84 | 1011.7 |
| 20260904160052 | 58 | 90 | 2.0 | 7.0 | 0.00 | 0.80 | 0.01 | 85 | 1011.6 |
| 20260904154550 | 57 | 74 | 1.0 | 5.0 | 0.00 | 0.83 | 0.01 | 85 | 1011.6 |
| 20260904153047 | 57 | 63 | 1.0 | 6.0 | 0.00 | 0.83 | 0.01 | 86 | 1011.4 |
| 20260904151553 | 57 | 74 | 2.0 | 8.0 | 0.00 | 0.83 | 0.01 | 86 | 1011.4 |
| 20260904150050 | 56 | 46 | 2.0 | 5.0 | 0.00 | 0.83 | 0.01 | 87 | 1011.1 |
| 20260904144547 | 56 | 82 | 1.0 | 4.0 | 0.00 | 0.84 | 0.01 | 87 | 1010.8 |
| 20260904143048 | 56 | 0 | 0.0 | 6.0 | 0.00 | 0.84 | 0.01 | 88 | 1010.7 |
| 20260904141557 | 55 | 90 | 2.0 | 6.0 | 0.00 | 0.84 | 0.01 | 88 | 1010.6 |
| 20260904134610 | 56 | 107 | 3.0 | 9.0 | 0.00 | 0.87 | 0.01 | 88 | 1010.4 |
| 20260904133046 | 56 | 96 | 3.0 | 9.0 | 0.00 | 0.87 | 0.01 | 88 | 1010.1 |
| 20260904131550 | 56 | 72 | 3.0 | 9.0 | 0.00 | 0.87 | 0.01 | 87 | 1010.1 |
| 20260904130048 | 56 | 109 | 2.0 | 7.0 | 0.00 | 0.87 | 0.01 | 88 | 1010.1 |
| 20260904124543 | 56 | 62 | 2.0 | 5.0 | 0.00 | 0.87 | 0.01 | 88 | 1010.1 |
| 20260904123058 | 56 | 47 | 1.0 | 5.0 | 0.00 | 0.87 | 0.01 | 87 | 1010.0 |
| 20260904121554 | 56 | 65 | 1.0 | 7.0 | 0.00 | 0.87 | 0.01 | 87 | 1009.9 |
| 20260904120050 | 56 | 72 | 2.0 | 6.0 | 0.00 | 0.87 | 0.01 | 87 | 1009.7 |
| 20260904114544 | 56 | 84 | 1.0 | 7.0 | 0.00 | 0.90 | 0.01 | 87 | 1009.7 |